[[{"header":{"parameterUnit":"m.s-1","parameterCategory":1,"la1":30.2991,"la2":30.254,"lo1":-89.0895,"lo2":-89.0444,"dy":0.0017,"dx":0.0017,"nx":28,"ny":28,"refTime":"2024-03-07T09:00:00:Z","depth":0,"parameterNumber":2,"parameterNumberName":"U-component_of_WINDS"},"data":[0,0,0,0,0,0,0,0,0,0,0,0,0,0,0,0,0,0,0,0,0,0,0,0,0,0,0,0,0,0,0,0,0,0,0,0,0,0,0,0,0,0,0,0,0,0,0,0,0,0,0,0,0,0,0,0,0,0,-5.7505,-5.7506,0,-5.7641,-5.7642,-5.7644,-5.7648,-5.7646,-5.7645,-5.7643,-5.7778,-5.7783,-5.7788,0,0,0,0,0,0,0,0,0,0,0,0,0,-5.7246,-5.7251,-5.7505,-5.7507,-5.7508,-5.764,-5.7642,-5.7644,-5.7648,-5.7646,-5.7644,-5.7642,-5.7776,-5.7782,-5.7788,0,0,0,0,0,0,0,0,0,0,0,0,0,-5.7368,-5.7253,-5.7505,-5.7526,-5.753,-5.764,-5.7642,-5.7644,-5.7649,-5.7646,-5.7644,-5.7641,-5.7774,-5.7782,-5.7789,-5.7886,0,0,-5.7813,-5.7816,0,0,0,0,0,0,0,0,-5.7361,-5.7377,-5.7521,-5.7525,-5.7529,-5.7625,-5.7601,-5.7725,-5.7649,-5.7603,-5.7643,-5.764,-5.7729,-5.774,-5.7771,-5.7892,-5.7898,-5.7813,-5.7818,-5.7821,-5.7824,0,0,0,0,0,0,0,-5.7353,-5.7371,-5.7558,-5.7523,-5.7528,-5.7528,-5.7543,-5.7624,-5.7678,-5.7607,-5.7608,-5.7624,-5.773,-5.7763,-5.7774,-5.79,-5.7813,-5.782,-5.7825,-5.7828,-5.8107,-5.811,0,0,0,0,0,0,-5.734,-5.7364,-5.7554,-5.7562,-5.7437,-5.7535,-5.7551,-5.7596,-5.7677,-5.7687,-5.7626,-5.7624,-5.7751,-5.7765,-5.7779,-5.7896,-5.7821,-5.7829,-5.7833,-5.8104,-5.8107,-5.811,0,0,0,0,0,0,-5.7335,-5.7357,-5.7549,-5.7464,-5.7488,-5.7542,-5.7593,-5.76,-5.7633,-5.7691,-5.7701,-5.765,-5.775,-5.7768,-5.7859,-5.79,-5.7832,-5.7839,-5.8101,-5.8105,-5.8109,-5.8131,0,0,0,0,0,0,-5.7327,-5.7355,-5.7393,-5.7465,-5.7493,-5.7628,-5.7595,-5.7605,-5.7647,-5.7645,-5.7716,-5.7726,-5.7749,-5.7848,-5.7867,-5.791,-5.7845,-5.8097,-5.8103,-5.8108,-5.8127,-5.8136,-5.8143,0,0,0,0,0,-5.7318,-5.7393,-5.7395,-5.7418,-5.7541,-5.763,-5.7646,-5.7673,-5.765,-5.7688,-5.7726,-5.7723,-5.7894,-5.7857,-5.7879,-5.7924,-5.8095,-5.8101,-5.8107,-5.8123,-5.8134,-5.8143,0,0,0,0,0,0,-5.7322,-5.7403,-5.7405,-5.7506,-5.7562,-5.7631,-5.7679,-5.7683,-5.7745,-5.7741,-5.7771,-5.7787,-5.7877,-5.7911,-5.7868,-5.8022,-5.7991,-5.8002,-5.7996,-5.8007,-5.8015,-5.8003,-5.7851,0,0,0,0,0,-5.7336,-5.7402,-5.7468,-5.7551,-5.7579,-5.7624,-5.7664,-5.768,-5.7738,-5.7761,-5.7805,-5.7861,-5.7927,-5.7969,-5.8033,-5.8133,-5.8148,-5.8176,-5.8184,-5.819,-5.8198,-5.8252,-5.8265,-5.8131,-5.8131,-5.8131,0,0,-5.7362,-5.7414,-5.7454,-5.7553,-5.7598,-5.7665,-5.7644,-5.7716,-5.7765,-5.7772,-5.786,-5.7895,-5.7959,-5.8055,-5.8099,-5.8085,-5.8239,-5.8198,-5.8203,-5.8207,-5.826,-5.8273,-5.8284,-5.8136,-5.8135,-5.8134,0,0,-5.7445,-5.7492,-5.7565,-5.7611,-5.768,-5.7711,-5.7728,-5.7798,-5.7821,-5.7912,-5.7918,-5.7977,-5.8091,-5.8136,-5.8173,-5.8276,-5.8275,-5.8296,-5.8337,-5.8389,-5.84,-5.8409,-5.8444,-5.8456,-5.8304,-5.8305,-5.8305,0,-5.7468,-5.7571,-5.7602,-5.7674,-5.7717,-5.7729,-5.7802,-5.7845,-5.7931,-5.7959,-5.7944,-5.8086,-5.813,-5.8236,-5.8262,-5.8293,-5.8312,-5.8286,-5.8396,-5.8406,-5.8415,-5.8448,-5.8461,-5.8306,-5.8306,-5.8306,-5.8306,0,-5.7596,-5.7667,-5.7718,-5.7802,-5.7851,-5.7924,-5.7965,-5.8011,-5.8024,-5.8055,-5.8147,-5.8201,-5.8275,-5.8303,-5.8315,-5.8411,-5.84,-5.839,-5.8359,-5.8429,-5.8461,-5.8474,-5.8309,-5.8308,-5.8308,-5.8307,0,0,-5.7681,-5.7784,-5.7802,-5.784,-5.7918,-5.7973,-5.8047,-5.8121,-5.8159,-5.8219,-5.828,-5.8377,-5.8369,-5.8411,-5.843,-5.8477,-5.8552,-5.8461,-5.8463,-5.8474,-5.8659,-5.8663,-5.8678,-5.8554,-5.8557,-5.8559,-5.8653,0,-5.777,-5.7902,-5.7933,-5.8045,-5.811,-5.8124,-5.8187,-5.8242,-5.8274,-5.8334,-5.8369,-5.8437,-5.8422,-5.8448,-5.8495,-5.8533,-5.8589,-5.8527,-5.8609,-5.8612,-5.8589,-5.8695,-5.87,-5.8785,-5.8666,-5.8668,-5.8669,0,-5.7891,-5.7954,-5.8073,-5.8144,-5.8172,-5.8229,-5.83,-5.8358,-5.842,-5.844,-5.849,-5.8504,-5.858,-5.8548,-5.8652,-5.8609,-5.8646,-5.867,-5.8674,-5.8679,-5.8642,-5.8701,-5.8814,-5.8825,-5.8689,-5.8688,-5.8686,0,-5.7938,-5.8054,-5.814,-5.8173,-5.8257,-5.8297,-5.8334,-5.8394,-5.8437,-5.8499,-5.8527,-5.8598,-5.8635,-5.8689,-5.8721,-5.8696,-5.8823,-5.8794,-5.884,-5.8839,-5.8863,-5.886,-5.898,-5.8891,-5.8891,-5.8891,-5.8891,0,-5.8032,-5.8103,-5.8162,-5.8215,-5.8295,-5.8331,-5.8409,-5.8446,-5.85,-5.8559,-5.8576,-5.8631,-5.8672,-5.8733,-5.8759,-5.884,-5.8858,-5.8875,-5.8881,-5.8872,-5.8869,-5.8893,-5.8887,-5.8894,-5.8894,-5.8893,-5.8892,0,-5.8096,-5.8139,-5.8233,-5.8307,-5.8327,-5.8383,-5.8445,-5.8496,-5.8531,-5.8605,-5.8625,-5.8678,-5.875,-5.8789,-5.888,-5.8897,-5.8988,-5.8992,-5.8967,-5.8968,-5.9011,-5.9005,-5.9148,-5.9167,-5.9068,-5.9069,-5.907,0,-5.8152,-5.8207,-5.8288,-5.8329,-5.8367,-5.8434,-5.8479,-5.8517,-5.8562,-5.8638,-5.868,-5.8754,-5.8814,-5.8929,-5.8975,-5.9044,-5.9048,-5.9094,-5.9058,-5.9048,-5.9046,-5.9041,-5.9045,-5.9098,-5.9099,-5.91,-5.91,0,-5.8245,-5.8264,-5.8328,-5.8401,-5.8454,-5.8513,-5.857,-5.8603,-5.8651,-5.8701,-5.8776,-5.8823,-5.8917,-5.8989,-5.9062,-5.9099,-5.9107,-5.9112,-5.9126,-5.9115,-5.9098,-5.9105,-5.898,-5.9107,-5.9107,-5.9106,-5.9106,-5.9105,-5.8305,-5.8355,-5.8419,-5.8491,-5.8539,-5.8593,-5.8644,-5.8686,-5.875,-5.8829,-5.8848,-5.8927,-5.8988,-5.9088,-5.9127,-5.9189,-5.9179,-5.92,-5.9205,-5.9208,-5.9209,-5.9091,-5.9202,-5.9202,-5.9202,-5.9202,-5.9202,0,-5.8397,-5.844,-5.8505,-5.8586,-5.8643,-5.8648,-5.8713,-5.8759,-5.8828,-5.8886,-5.8946,-5.9032,-5.9103,-5.9156,-5.9228,-5.9267,-5.9272,-5.9284,-5.928,-5.9288,-5.9214,-5.9193,-5.9279,-5.9279,-5.9279,-5.9279,-5.9279,-5.9279,-5.8451,-5.8535,-5.8562,-5.867,-5.8713,-5.8791,-5.8827,-5.8877,-5.8923,-5.9019,-5.9078,-5.9113,-5.9168,-5.9245,-5.931,-5.9324,-5.9349,-5.936,-5.9373,-5.9302,-5.9294,-5.9286,-5.9266,-5.9366,-5.9366,-5.9442,-5.9443,-5.9443]},{"header":{"parameterUnit":"m.s-1","parameterCategory":1,"la1":30.2991,"la2":30.254,"lo1":-89.0895,"lo2":-89.0444,"dy":0.0017,"dx":0.0017,"nx":28,"ny":28,"refTime":"2024-03-07T09:00:00:Z","depth":0,"parameterNumber":3,"parameterNumberName":"V-component_of_WINDS"},"data":[0,0,0,0,0,0,0,0,0,0,0,0,0,0,0,0,0,0,0,0,0,0,0,0,0,0,0,0,0,0,0,0,0,0,0,0,0,0,0,0,0,0,0,0,0,0,0,0,0,0,0,0,0,0,0,0,0,0,3.0586,3.0586,0,3.0601,3.0601,3.0601,3.0594,3.0593,3.0593,3.0593,3.0604,3.0604,3.0605,0,0,0,0,0,0,0,0,0,0,0,0,0,3.0551,3.0552,3.0586,3.0586,3.0587,3.0601,3.0601,3.0601,3.0594,3.0593,3.0593,3.0593,3.0603,3.0604,3.0605,0,0,0,0,0,0,0,0,0,0,0,0,0,3.0566,3.0552,3.0586,3.0585,3.0585,3.0601,3.0601,3.0601,3.0594,3.0593,3.0593,3.0592,3.0603,3.0604,3.0605,3.0622,0,0,3.0608,3.0608,0,0,0,0,0,0,0,0,3.0565,3.0567,3.0585,3.0585,3.0585,3.0595,3.0593,3.0608,3.0594,3.059,3.0593,3.0592,3.0601,3.0602,3.0606,3.0622,3.0623,3.0608,3.0609,3.0609,3.0609,0,0,0,0,0,0,0,3.0564,3.0567,3.0592,3.0585,3.0585,3.0583,3.0585,3.0595,3.0598,3.0591,3.059,3.0592,3.0601,3.0605,3.0606,3.0623,3.0608,3.0609,3.0609,3.061,3.0658,3.0659,0,0,0,0,0,0,3.0563,3.0566,3.0591,3.0592,3.0574,3.0584,3.0586,3.0592,3.0598,3.0599,3.0593,3.0592,3.0604,3.0605,3.0606,3.0629,3.0609,3.061,3.061,3.0657,3.0658,3.0659,0,0,0,0,0,0,3.0563,3.0566,3.0591,3.0579,3.0582,3.0585,3.0593,3.0593,3.0597,3.06,3.06,3.0596,3.0603,3.0605,3.0619,3.0629,3.061,3.0611,3.0657,3.0658,3.0659,3.0673,0,0,0,0,0,0,3.0562,3.0566,3.0572,3.0579,3.0583,3.0604,3.0593,3.0593,3.0599,3.0598,3.0603,3.0604,3.0603,3.0618,3.062,3.063,3.0612,3.0656,3.0657,3.0658,3.0671,3.0674,3.0677,0,0,0,0,0,3.056,3.0574,3.0572,3.0575,3.0591,3.0604,3.0606,3.0606,3.06,3.0607,3.0609,3.0604,3.0628,3.0619,3.0622,3.0632,3.0655,3.0657,3.0658,3.067,3.0674,3.0677,0,0,0,0,0,0,3.0565,3.0574,3.0573,3.0589,3.0596,3.0603,3.0611,3.0609,3.0617,3.0615,3.0614,3.0615,3.0631,3.0633,3.0623,3.0651,3.0641,3.0643,3.0649,3.0652,3.0655,3.0654,3.0613,0,0,0,0,0,3.0568,3.0579,3.0586,3.06,3.0604,3.0607,3.0613,3.0613,3.0619,3.0622,3.0625,3.0631,3.0641,3.0646,3.0655,3.0672,3.0674,3.0681,3.0683,3.0685,3.0687,3.07,3.0703,3.0664,3.0664,3.0664,0,0,3.0574,3.058,3.0587,3.0601,3.0606,3.0618,3.0609,3.062,3.0629,3.0623,3.0638,3.0641,3.0647,3.0664,3.0672,3.0666,3.0699,3.0687,3.0689,3.069,3.0702,3.0705,3.0709,3.0665,3.0665,3.0665,0,0,3.0591,3.0596,3.061,3.0616,3.0626,3.0629,3.0632,3.0641,3.0643,3.0658,3.0655,3.0665,3.068,3.0686,3.0691,3.0715,3.0711,3.0718,3.0731,3.0743,3.0746,3.0749,3.076,3.0763,3.072,3.072,3.072,0,3.0596,3.0614,3.0616,3.0629,3.0636,3.0634,3.0648,3.0654,3.0666,3.0671,3.0665,3.0687,3.0691,3.0711,3.0718,3.0721,3.0726,3.0717,3.0746,3.0749,3.0751,3.0761,3.0765,3.0721,3.0721,3.0721,3.0721,0,3.0621,3.0634,3.0644,3.0658,3.0666,3.0679,3.0684,3.0692,3.0692,3.0696,3.0713,3.0719,3.073,3.0734,3.0733,3.0755,3.0752,3.0746,3.0736,3.0756,3.0765,3.0769,3.0722,3.0722,3.0722,3.0721,0,0,3.0638,3.0657,3.066,3.0668,3.0681,3.069,3.0705,3.0718,3.0726,3.0735,3.0747,3.0763,3.0759,3.0765,3.0765,3.0775,3.0797,3.0769,3.0769,3.0775,3.0824,3.0829,3.0833,3.0795,3.0796,3.0796,3.0824,0,3.0657,3.0683,3.0688,3.0711,3.0724,3.0725,3.0737,3.0747,3.0752,3.0763,3.0768,3.078,3.0773,3.0777,3.0788,3.0792,3.0807,3.079,3.0807,3.0808,3.0806,3.0838,3.0842,3.0867,3.0828,3.0828,3.0829,0,3.0681,3.0694,3.072,3.0735,3.074,3.0751,3.0766,3.0777,3.0788,3.0791,3.0801,3.08,3.0816,3.0806,3.0829,3.0817,3.0825,3.0829,3.083,3.0831,3.0819,3.0841,3.0875,3.088,3.0834,3.0834,3.0833,0,3.0693,3.0717,3.0736,3.0742,3.0759,3.0768,3.0775,3.0787,3.0796,3.0808,3.0814,3.0827,3.0835,3.0845,3.085,3.0841,3.0873,3.0862,3.0876,3.0876,3.0882,3.0882,3.0919,3.0886,3.0886,3.0886,3.0886,0,3.0714,3.0729,3.0742,3.0754,3.0772,3.0778,3.0796,3.0803,3.0814,3.0828,3.0828,3.0841,3.0845,3.0859,3.0862,3.0881,3.0884,3.0887,3.0888,3.0888,3.0888,3.0892,3.0891,3.0887,3.0887,3.0886,3.0886,0,3.0729,3.0738,3.0759,3.0776,3.078,3.0793,3.0807,3.0819,3.0825,3.0843,3.0847,3.0857,3.0873,3.0879,3.0897,3.09,3.0923,3.0922,3.092,3.092,3.0935,3.0934,3.0977,3.0984,3.0945,3.0946,3.0946,0,3.0742,3.0754,3.0774,3.0784,3.0792,3.0808,3.0819,3.0826,3.0836,3.0853,3.0864,3.0881,3.0894,3.0921,3.0929,3.0945,3.0944,3.0959,3.0946,3.0947,3.0946,3.0946,3.0948,3.096,3.0961,3.0961,3.0961,0,3.0764,3.0769,3.0784,3.0803,3.0816,3.083,3.0844,3.0852,3.0862,3.0874,3.0892,3.0904,3.0925,3.0943,3.096,3.0967,3.0966,3.0966,3.097,3.097,3.0969,3.0972,3.0927,3.0964,3.0964,3.0964,3.0964,3.0963,3.0779,3.0792,3.0808,3.0827,3.0839,3.0853,3.0866,3.0876,3.0892,3.0912,3.0915,3.0935,3.095,3.0973,3.0981,3.0997,3.0993,3.0999,3.1001,3.1002,3.1004,3.0967,3.1,3.1,3.1,3.1,3.1,0,3.0802,3.0814,3.0831,3.0853,3.0868,3.0869,3.0885,3.0898,3.0916,3.0931,3.0946,3.0969,3.0987,3.0998,3.1017,3.1027,3.1028,3.1032,3.1031,3.1034,3.1006,3.1001,3.1032,3.1032,3.1032,3.1032,3.1032,3.1032,3.0816,3.0839,3.0847,3.0876,3.0888,3.091,3.0919,3.0933,3.0945,3.0971,3.0987,3.0996,3.101,3.103,3.1047,3.105,3.1057,3.1062,3.1065,3.1038,3.1035,3.1032,3.1028,3.1063,3.1064,3.1092,3.1092,3.1092]}]]